Fairbanks, AK

4:08 AM AKDT on August 20, 2019 (GMT -0800)
Fairbanks International

Weather History for PAFA - January, 1975

Change the Weather History Date:

Wednesday, January 29, 1975

  Actual Average Record
Temperature  
Mean Temperature 16 °F -7 °F  
Max Temperature 28 °F 2 °F 35 °F (1957)
Min Temperature 5 °F -16 °F -58 °F (1933)
Degree Days  
Heating Degree Days 48 72  
Month to date heating degree days 2118  
Since 1 July heating degree days 8390  
Cooling Degree Days 0 0  
Month to date cooling degree days 0  
Year to date cooling degree days 0  
Moisture  
Dew Point 7 °F    
Average Humidity 61    
Maximum Humidity 78    
Minimum Humidity 42    
Precipitation  
Precipitation 0.01 in 0.01 in 0.23 in (1934)
Month to date precipitation 0.54  
Year to date precipitation 0.54  
Snow  
Snow 0.00 in 0.40 in 4.00 in (1973)
Month to date snowfall 9.7  
Since 1 July snowfall 47.6  
Snow Depth -    
Sea Level Pressure  
Sea Level Pressure 30.37 in    
Wind  
Wind Speed 11 mph (WSW)    
Max Wind Speed 26 mph    
Max Gust Speed 32 mph    
Visibility 11 miles    
Events Snow    
T = Trace of Precipitation, MM = Missing Value Source: NWS Daily Summary

Daily Weather History Graph

Daily Weather History Graph

Search for Another Location

Airport or City:

Astronomy

Jan. 29, 1975 Rise Set
Actual Time 8:47 AM AHST 3:22 PM AHST
Civil Twilight 7:46 AM AHST 4:23 PM AHST
Nautical Twilight 6:45 AM AHST 5:25 PM AHST
Astronomical Twilight 5:47 AM AHST 6:22 PM AHST
Moon 8:17 PM AHST (1/29) 8:21 AM AHST (1/29)
Length of Visible Light 8h 36m
Length of Day
6h 35m
Waning Gibbous, 92% of the Moon is Illuminated
Jan 29
Waning Gibbous
Feb 2
Last Quarter
Feb 10
New
Feb 18
First Quarter
Feb 25
Full

Hourly Weather History & Observations

Time (AHST) Temp. Windchill Dew Point Humidity Pressure Visibility Wind Dir Wind Speed Gust Speed Precip Events Conditions
12:00 AM 28.9 °F 21.1 °F 23.0 °F 78% 30.25 in 4.0 mi SW 8.1 mph - N/A Snow Light Snow
1:00 AM 28.0 °F 19.3 °F 21.9 °F 78% 30.24 in 4.0 mi SW 9.2 mph - N/A Snow Light Snow
1:20 AM - - - N/A% 30.20 in 4.0 mi SW 11.5 mph - N/A   Unknown
2:00 AM 28.0 °F 19.3 °F 21.0 °F 75% 30.23 in 4.0 mi SW 9.2 mph - N/A Snow Light Snow
2:22 AM - - - N/A% 30.20 in 4.0 mi SW 10.4 mph - N/A   Unknown
3:00 AM 27.0 °F 15.6 °F 19.0 °F 72% 30.23 in 7.0 mi WSW 13.8 mph - 0.01 in Snow Light Snow
4:00 AM 24.1 °F 15.2 °F 16.0 °F 71% 30.23 in 7.0 mi SW 8.1 mph - N/A Snow Light Snow
5:00 AM 26.1 °F 18.4 °F 18.0 °F 71% 30.23 in 5.0 mi SW 6.9 mph - N/A Snow Light Snow
6:00 AM 26.1 °F 16.2 °F 17.1 °F 69% 30.23 in 5.0 mi SW 10.4 mph - N/A Snow Light Snow
7:00 AM 24.1 °F 14.4 °F 16.0 °F 71% 30.23 in 7.0 mi WSW 9.2 mph - N/A Snow Light Snow
8:00 AM 24.1 °F 12.5 °F 15.1 °F 69% 30.26 in 7.0 mi WSW 12.7 mph - N/A Snow Light Snow
9:00 AM 23.0 °F 13.1 °F 14.0 °F 68% 30.29 in 7.0 mi West 9.2 mph - N/A Snow Light Snow
10:00 AM 21.0 °F 7.6 °F 10.0 °F 63% 30.32 in 15.0 mi WSW 15.0 mph - N/A   Overcast
11:00 AM 18.0 °F 4.2 °F 7.0 °F 62% 30.36 in 15.0 mi WSW 13.8 mph - N/A   Overcast
12:00 PM 17.1 °F 3.0 °F 5.0 °F 59% 30.39 in 20.0 mi West 13.8 mph - N/A   Overcast
1:00 PM 16.0 °F 2.3 °F 3.9 °F 59% 30.43 in 20.0 mi WSW 12.7 mph - N/A   Overcast
2:00 PM 15.1 °F -0.1 °F 5.0 °F 64% 30.45 in 80.0 mi WSW 15.0 mph - N/A   Overcast
3:00 PM 14.0 °F 2.0 °F 3.0 °F 62% 30.49 in 80.0 mi WSW 9.2 mph - N/A   Mostly Cloudy
4:00 PM 12.0 °F -3.4 °F -4.0 °F 49% 30.52 in 40.0 mi WSW 13.8 mph - N/A   Partly Cloudy
5:00 PM 12.0 °F -2.7 °F -2.9 °F 51% 30.53 in 20.0 mi SW 12.7 mph - N/A   Partly Cloudy
6:00 PM 12.0 °F -5.1 °F -4.0 °F 49% 30.53 in 20.0 mi WSW 17.3 mph - N/A   Partly Cloudy
7:00 PM 10.9 °F 0.2 °F -8.0 °F 42% 30.54 in 20.0 mi WNW 6.9 mph - N/A   Partly Cloudy
8:00 PM 12.9 °F -3.4 °F -5.1 °F 45% 30.56 in 20.0 mi SW 16.1 mph - N/A   Partly Cloudy
9:00 PM 12.0 °F -8.5 °F -2.0 °F 53% 30.56 in 15.0 mi WSW 26.5 mph 32.2 mph N/A   Clear
10:00 PM 5.0 °F -9.1 °F -13.0 °F 43% 30.58 in 15.0 mi SW 9.2 mph - N/A   Clear
11:00 PM 7.0 °F -9.8 °F -11.0 °F 44% 30.60 in 15.0 mi SW 13.8 mph - N/A   Clear